Location: Missouri Flat Well
(38.7921°N, 119.1538°W)
Time: 06:28:49
(UTC+00:00)

Daily predictions for brighter satellites

Satellite Brightness Start Highest point End
(mag) Time Altitude Azimuth Time Altitude Azimuth Time Altitude Azimuth
Cosmos 1484 Rocket 4.4 12:02:47 10° NNE 12:06:16 33° E 12:09:41 10° SSE
Lacrosse 4 Rocket 3.6 12:14:58 15° N 12:14:58 15° N 12:15:47 10° N
Cosmos 1833 Rocket 2.5 12:17:49 52° SW 12:19:11 74° WNW 12:24:52 10° NNE
Cosmos 44 Rocket 3.3 12:25:06 50° NW 12:26:25 74° WSW 12:31:35 10° SSE
Lacrosse 5 rocket 2.5 12:29:12 27° N 12:29:12 27° N 12:31:23 10° NNE
Meteor 1-31 Rocket 3.7 12:27:00 10° NNE 12:30:50 49° E 12:34:39 10° S
ATLAS 3B R/B 2.5 12:26:50 23° SW 12:31:13 84° WNW 12:37:53 10° NNE
Meteor 1-24 Rocket 4.1 12:28:40 10° S 12:34:10 67° E 12:39:55 10° NNE
METEOR-M 4.5 12:30:15 10° NNE 12:35:34 66° ESE 12:40:52 10° S
USA 290 2.3 12:37:59 62° SSE 12:38:24 76° ESE 12:41:38 10° NNE
Cosmos 2369 3.9 12:32:44 10° NNW 12:38:25 72° ENE 12:44:02 10° SSE
Cosmos 2228 3.3 12:34:12 10° N 12:38:34 70° E 12:42:56 10° SSE
ISS -2.2 12:39:29 25° N 12:39:29 25° N 12:41:37 10° NNE
Cosmos 1992 Rocket 4.5 12:35:16 10° NNW 12:40:26 61° ENE 12:45:34 10° SSE
Cosmos 2082 Rocket 2.1 12:35:05 10° SSW 12:40:41 88° WNW 12:46:20 10° NNE
ADEOS Rocket 3.0 12:37:48 10° S 12:43:01 43° W 12:48:17 10° NNW
Cosmos 1656 3.9 12:41:10 29° NW 12:43:33 45° WSW 12:48:55 10° S
Cosmos 1606 Rocket 3.6 12:41:54 10° N 12:46:23 81° E 12:50:50 10° S
ALOS 2.1 12:45:29 10° N 12:50:09 71° WNW 12:54:47 10° SSW
ERS-2 2.1 12:47:57 10° S 12:51:31 55° W 12:53:32 23° NNW
COSMO-SKYMED 1 3.7 12:47:41 10° SE 12:51:50 46° ENE 12:55:59 10° N
SAR-Lupe-4 3.9 12:48:43 10° SSE 12:52:15 67° ENE 12:55:49 10° N
H-2A R/B 4.1 12:50:23 10° SSW 12:51:14 14° SW 12:51:14 14° SW
NOSS 8 (A) 4.4 12:52:52 13° SSW 12:56:04 74° ESE 12:59:05 10° NE
CZ-4B R/B 3.7 12:53:07 10° N 12:57:17 76° WNW 13:01:14 10° SSW
Cosmos 1400 Rocket 2.9 12:58:16 10° N 13:02:13 73° E 13:06:04 10° SSE
Cosmos 1092 Rocket 3.9 12:56:24 10° SSW 13:02:32 71° W 13:08:46 10° N
Meteor 2-5 Rocket 3.9 12:57:34 10° SSW 13:03:05 52° WNW 13:08:44 10° N
Cosmos 614 Rocket 4.4 12:58:10 10° S 13:03:16 65° ESE 13:08:21 10° NNE
COSMOS 2406 4.2 13:02:28 23° WNW 13:03:47 25° WNW 13:08:27 10° N
Cosmos 967 Rocket 4.4 12:57:35 10° NNW 13:03:55 88° WSW 13:10:10 10° SSE
Cosmos 2251 Rocket 3.5 12:59:07 10° SSW 13:04:24 60° WNW 13:09:43 10° NNE
Meteor 2-13 Rocket 4.5 13:00:58 10° SSW 13:06:59 56° W 13:13:01 10° N
Cosmos 1697 Rocket 2.8 13:01:40 10° NNW 13:07:11 55° WSW 13:12:40 10° S
Cosmos 220 Rocket 4.0 13:02:48 10° NNW 13:07:12 63° WSW 13:11:32 10° S
Nadezhda 4 Rocket 4.4 13:02:00 10° SW 13:07:37 38° WNW 13:13:18 10° N
SAR-Lupe-1 3.9 13:06:34 10° S 13:10:07 76° WSW 13:13:42 10° NNW
Okean 1-7 Rocket 3.6 13:09:21 10° S 13:13:53 88° W 13:18:27 10° N
CZ-2C R/B 3.8 13:11:12 10° NNW 13:14:26 18° WNW 13:14:35 18° WNW
deb Chang Zheng 4 3.9 13:10:36 10° N 13:14:36 40° WNW 13:18:35 10° SW
Cosmos 2084 3.5 13:12:31 10° SW 13:16:45 57° NW 13:21:04 10° NNE
FENGYUN 3A 4.0 13:12:20 10° N 13:17:25 42° WNW 13:22:30 10° SW
Cosmos 2058 Rocket 3.1 13:14:51 10° N 13:19:22 90° E 13:23:50 10° S
SL-14 R/B 4.2 13:16:01 10° SW 13:19:25 27° WNW 13:22:53 10° NNW
Cosmos 1300 3.0 13:18:46 10° NNW 13:22:23 41° W 13:25:59 10° SSW
H-2A R/B 4.1 13:20:20 10° NNE 13:24:25 39° E 13:28:21 10° SSE
Cosmos 1892 Rocket 3.8 13:21:08 10° SSW 13:25:15 43° W 13:29:26 10° N
SJ-12 4.1 13:24:00 10° N 13:27:59 50° WNW 13:31:56 10° SSW
Cosmos 1626 3.7 13:27:48 15° W 13:28:25 16° WNW 13:30:45 10° NW
Cosmos 1980 Rocket 2.1 13:24:08 10° NNW 13:29:42 69° WSW 13:35:15 10° SSE
Cosmos 1461 4.5 13:29:53 13° W 13:32:31 21° NW 13:36:04 10° N
Cosmos 1315 Rocket 3.7 13:29:05 10° N 13:33:08 54° ENE 13:37:11 10° SSE
CZ-4B R/B 2.9 13:32:15 10° SW 13:34:45 19° W 13:37:16 10° NW
Abrixas rocket 3.0 13:32:24 10° NW 13:35:02 37° NNE 13:37:42 10° E
Cosmos 2098 Rocket 4.0 13:29:23 10° S 13:35:47 76° E 13:40:55 10° N
CENTAUR R/B 4.3 13:32:41 10° WNW 13:36:21 15° NNW 13:40:21 10° N
Cosmos 2292 Rocket 4.0 13:34:19 10° SSE 13:37:12 46° E 13:40:34 10° NNE
SKYMED 2 3.8 13:35:41 10° S 13:39:52 48° W 13:44:05 10° NNW
Cosmos 1484 Rocket 4.3 13:38:02 10° NNW 13:40:22 16° WNW 13:42:41 10° WSW
Spot 2 4.3 13:37:56 10° NNE 13:42:33 90° WSW 13:47:24 10° SSW
SJ-7 4.5 13:40:16 10° NNE 13:44:17 81° ESE 13:48:15 10° S
OE (NEXTSAT) 4.3 13:40:56 10° WSW 13:44:25 86° NNW 13:47:55 10° ENE
H-2A R/B 2.7 13:41:46 10° N 13:45:35 83° WNW 13:49:26 10° SSW
Aureole 3 4.2 13:41:38 10° NNW 13:45:49 45° W 13:51:05 10° SSW
Meteor 2-8 Rocket 4.5 13:39:56 10° NNW 13:46:02 65° W 13:52:05 10° S
Envisat 3.6 13:43:46 10° NNE 13:48:50 64° E 13:53:51 10° S
Cosmos 407 Rocket 3.4 13:44:01 10° SSW 13:49:07 73° WNW 13:54:17 10° NNE
Cosmos 1626 Rocket 3.6 13:45:18 10° SSW 13:49:44 74° W 13:54:13 10° N
PSLV R/B 4.4 13:45:55 10° S 13:49:53 42° W 13:53:54 10° NNW
Cosmos 1602 Rocket 3.7 13:48:04 10° S 13:52:28 87° ESE 13:56:58 10° N
Cosmos 1689 Rocket 3.3 13:50:28 10° SSW 13:52:50 22° W 13:55:14 10° NW
Cosmos 1140 Rocket 3.5 13:48:28 10° SSW 13:53:36 83° WNW 13:58:45 10° NNE
SL-27 R/B 2.8 13:50:56 10° S 13:54:29 75° ESE 13:58:06 10° NNE
Okean O Rocket 3.1 13:51:26 10° NNE 13:55:35 43° E 13:59:44 10° S
Cosmos 1553 Rocket 4.0 13:51:53 10° NNW 13:57:57 67° W 14:03:56 10° S
